Regional Weather Roundup
Issued by NWS

Home | Current Version | Previous Version | Graphics & Text | Print | Product List | Glossary On
Versions: 1 2 3 4 5 6 7 8 9 10 11 12 13 14 15 16 17 18 19 20 21 22 23 24 25 26 27 28 29 30 31 32 33 34 35 36 37 38 39 40 41 42 43 44 45 46 47 48 49 50
000
ASUS43 KLSX 291007
RWRMO

WEATHER SUMMARY FOR MISSOURI
NATIONAL WEATHER SERVICE SPRINGFIELD MO
500 AM CDT FRI MAY 29 2015

NOTE: "FAIR" INDICATES FEW OR NO CLOUDS BELOW 12,000 FEET WITH NO
       SIGNIFICANT WEATHER AND/OR OBSTRUCTIONS TO VISIBILITY.
       CURRENT SKY AND/OR WEATHER CONDITIONS ARE NOT AVAILABLE FOR
       CHILLICOTHE AND FARMINGTON.

MOZ001>031-035>038-043-044-053-054-291100-
...NORTHERN AND WESTERN MISSOURI...

CITY           SKY/WX    TMP DP  RH WIND       PRES   REMARKS
KANSAS CTY INT CLOUDY    63  63 100 S8        29.94R
KANSAS C DTWN  CLOUDY    65  62  90 S5        29.93S
LEE`S SUMMIT   FOG       64  63  96 S5        29.95S VSB 3/4
ST JOSEPH      PTCLDY    63  62  97 S6        29.93R
CHILLICOTHE      N/A     64  63  96 CALM      29.96R
KIRKSVILLE     CLOUDY    65  64  97 E3        29.94F

$$
MOZ066>068-077>081-088>096-101>105-291100-
...SOUTHWEST MISSOURI...

CITY           SKY/WX    TMP DP  RH WIND       PRES   REMARKS
SPRINGFIELD    PTCLDY    66  61  84 S10       29.98S
JOPLIN         MOCLDY    68  63  84 SW7       29.97R

$$
MOZ032>034-039>042-045>050-055>058-069>072-291100-
...CENTRAL MISSOURI...

CITY           SKY/WX    TMP DP  RH WIND       PRES   REMARKS
COLUMBIA       CLOUDY    65  64  97 S7        29.97S
JEFFERSON CITY CLOUDY    66  63  90 SE5       29.97R
ROLLA          CLOUDY    66  64  93 S10       29.99S
SEDALIA        CLOUDY    67  64  90 S6        29.97R
WHITEMAN AFB   CLOUDY    66  66 100 S8        29.95R
WARRENSBURG    FOG       64  63  94 S5        29.95S VSB 3/4
OSAGE BEACH    MOCLDY    64  61  88 S5        29.98R

$$
MOZ051-052-059>065-291100-
...EAST CENTRAL MISSOURI...

CITY           SKY/WX    TMP DP  RH WIND       PRES   REMARKS
ST LOUIS INTL  MOCLDY    72  65  78 S9        29.99S
SPIRIT OF STL  MOCLDY   N/A N/A N/A S5        29.98S
ST CHARLES     MOCLDY    69  65  86 SE6       29.98S

$$
MOZ072>076-082>087-097>100-106>115-291100-
...SOUTH CENTRAL AND SOUTHEAST MISSOURI...

CITY           SKY/WX    TMP DP  RH WIND       PRES   REMARKS
CAPE GIRARDEAU PTCLDY    66  65  96 CALM      30.02S
FARMINGTON     MOCLDY    66  64  94 S5        30.05S
POPLAR BLUFF   MOCLDY    68  65  90 CALM      30.01S
WEST PLAINS    MOCLDY    67  63  87 S6        30.02

$$


USA.gov is the U.S. government's official web portal to all federal, state and local government web resources and services.